Weather History for KCLE - November, 2014

Change the Weather History Date:

Sunday, November 23, 2014

  Actual Average Record
Temperature  
Mean Temperature 51 °F 41 °F  
Max Temperature 58 °F 47 °F 75 °F (1931)
Min Temperature 44 °F 35 °F 6 °F (1880)
Degree Days  
Heating Degree Days 14 24  
Month to date heating degree days 650 456  
Since 1 July heating degree days 1150 916  
Cooling Degree Days 0 0  
Month to date cooling degree days 0 0  
Year to date cooling degree days 657 816  
Moisture  
Dew Point 41 °F    
Average Humidity 73    
Maximum Humidity 89    
Minimum Humidity 56    
Precipitation  
Precipitation 0.20 in 0.12 in 1.32 in (1961)
Month to date precipitation 2.66 2.79  
Year to date precipitation 41.08 35.21  
Snow  
Snow 0.00 in 0.20 in - ()
Month to date snowfall 12.4 2.7  
Since 1 July snowfall 12.4 2.9  
Since 1 September snowfall 12.4 2.9  
Snow Depth 0.00 in    
Sea Level Pressure  
Sea Level Pressure 29.85 in    
Wind  
Wind Speed 13 mph (SSE)    
Max Wind Speed 25 mph    
Max Gust Speed 35 mph    
Visibility 10 miles    
Events Rain    
T = Trace of Precipitation, MM = Missing Value Source: NWS Daily Summary

Daily Weather History Graph

Daily Weather History Graph

Search for Another Location

Airport or City:

Trip Planner

Search our weather history database for the weather conditions in past years. The results will help you decide how hot, cold, wet, or windy it might be!

Date:

Astronomy

Nov. 23, 2014 Rise Set
Actual Time 7:25 AM EST 5:02 PM EST
Civil Twilight 6:55 AM EST 5:32 PM EST
Nautical Twilight 6:21 AM EST 6:06 PM EST
Astronomical Twilight 5:48 AM EST 6:39 PM EST
Moon 8:19 AM EST (11/23) 6:24 PM EST (11/23)
Length of Visible Light 10h 37m
Length of Day
9h 36m
New Moon, 2% of the Moon is Illuminated
Nov 23
New Moon
Nov 29
First Quarter
Dec 6
Full
Dec 14
Last Quarter
Dec 21
New

Hourly Weather History & Observations

Time (EST) Temp. Windchill Dew Point Humidity Pressure Visibility Wind Dir Wind Speed Gust Speed Precip Events Conditions
12:51 AM 48.9 °F - 36.0 °F 61% 30.07 in 10.0 mi SSW 12.7 mph - N/A   Overcast
1:51 AM 48.9 °F - 36.0 °F 61% 30.06 in 10.0 mi South 10.4 mph - N/A   Overcast
2:51 AM 48.9 °F - 34.0 °F 56% 30.07 in 10.0 mi South 12.7 mph - N/A   Overcast
3:51 AM 48.9 °F - 35.1 °F 59% 30.06 in 10.0 mi SSW 11.5 mph - N/A   Overcast
4:51 AM 46.0 °F 41.0 °F 39.9 °F 79% 30.06 in 10.0 mi SSW 10.4 mph - 0.01 in Rain Light Rain
5:51 AM 45.0 °F 39.7 °F 39.0 °F 80% 30.07 in 9.0 mi South 10.4 mph - 0.03 in Rain Light Rain
6:51 AM 44.1 °F 39.0 °F 39.9 °F 85% 30.06 in 10.0 mi South 9.2 mph - 0.02 in Rain Light Rain
7:51 AM 44.1 °F 39.0 °F 41.0 °F 89% 30.04 in 10.0 mi SSE 9.2 mph - 0.00 in Rain Light Rain
8:51 AM 45.0 °F 40.1 °F 41.0 °F 86% 30.05 in 10.0 mi South 9.2 mph - 0.00 in   Overcast
9:51 AM 46.0 °F 41.9 °F 39.9 °F 79% 30.06 in 10.0 mi South 8.1 mph - N/A   Overcast
10:51 AM 50.0 °F - 37.9 °F 63% 30.02 in 10.0 mi South 10.4 mph - N/A   Overcast
11:51 AM 53.1 °F - 39.9 °F 61% 29.97 in 10.0 mi SSE 11.5 mph - N/A   Overcast
12:51 PM 53.1 °F - 39.9 °F 61% 29.94 in 10.0 mi South 8.1 mph - N/A   Overcast
1:35 PM 55.0 °F - 41.0 °F 59% 29.89 in 10.0 mi South 9.2 mph - N/A   Overcast
1:51 PM 55.0 °F - 42.1 °F 62% 29.89 in 10.0 mi SSE 8.1 mph - N/A   Overcast
2:51 PM 55.9 °F - 41.0 °F 57% 29.84 in 10.0 mi SSE 10.4 mph - N/A   Mostly Cloudy
3:51 PM 55.9 °F - 41.0 °F 57% 29.79 in 10.0 mi SE 12.7 mph - N/A   Overcast
4:51 PM 55.9 °F - 43.0 °F 62% 29.75 in 10.0 mi ESE 11.5 mph - N/A   Overcast
5:51 PM 57.9 °F - 43.0 °F 58% 29.70 in 10.0 mi SE 15.0 mph 21.9 mph N/A   Overcast
6:51 PM 57.9 °F - 45.0 °F 62% 29.64 in 10.0 mi SE 18.4 mph 26.5 mph N/A   Overcast
7:51 PM 57.9 °F - 45.0 °F 62% 29.59 in 10.0 mi SSE 16.1 mph 23.0 mph 0.00 in Rain Light Rain
8:51 PM 55.0 °F - 48.0 °F 77% 29.55 in 9.0 mi SSE 18.4 mph 31.1 mph 0.01 in Rain Light Rain
9:51 PM 53.1 °F - 48.0 °F 83% 29.48 in 9.0 mi SE 19.6 mph 27.6 mph 0.05 in Rain Light Rain
10:51 PM 53.1 °F - 48.9 °F 86% 29.41 in 10.0 mi SSE 19.6 mph 32.2 mph 0.01 in Rain Light Rain
11:13 PM 53.1 °F - 48.9 °F 86% 29.37 in 6.0 mi SSE 18.4 mph 29.9 mph 0.02 in Rain Light Rain
11:51 PM 54.0 °F - 51.1 °F 90% 29.35 in 9.0 mi SSE 19.6 mph 27.6 mph 0.07 in Rain Light Rain